Flag for Norway Weather past 2 weeks in Hammerfest, Norway

Now
39 °F

Light rain. Mostly cloudy.


Feels Like: 30 °F
Forecast: 36 / 38 °F
Wind: 16 mph from Southwest

Location: Hammerfest

Current Time: Apr 18, 2015 at 11:19:41 AM

Latest Report: Apr 18, 2015 at 10:50 AM


Visibility: N/A

Pressure: 29.95 "Hg

Humidity: 93%

Dew point: 37 °F

Location of HammerfestLocation

Historic Weather in Hammerfest — Graph

°F

Hammerfest temperature yesterday

Maximum temperature yesterday: 39 °F (at 11:50 AM)
Minimum temperature yesterday: 32 °F (at 12:50 AM)
Average temperature yesterday: 37 °F

Past Weeks' High & Low Weather Summary

 TemperatureHumidityPressure
High41 °F (Apr 12, 4:50 PM)100% (Apr 3, 9:50 AM)30.30 "Hg (Apr 3, 9:50 AM)
Low27 °F (Apr 4, 4:50 AM)56% (Apr 12, 6:50 AM)29.00 "Hg (Apr 8, 6:50 AM)
Average35 °F80%29.62 "Hg
* Reported Apr 3 9:50 AM — Apr 18 9:50 AM, Hammerfest, Weather by CustomWeather, © 2015

Note: Actual official high and low records may vary slightly from our data, if they occured in-between our weather recording intervals... More about our weather records

Advertising

Hammerfest weather history for previous 24 hours

 ConditionsComfort  
Time TempWeatherWind HumidityBarometerVisibility
9:50 AM
Sat, Apr 18
39 °FDrizzle. Mostly cloudy.15 mph93%29.95 "HgN/A
8:50 AM39 °FBroken clouds.17 mph93%29.95 "HgN/A
7:50 AM37 °FDrizzle. Low clouds.10 mph100%29.95 "Hg3 mi
6:50 AM37 °FDrizzle. Partly sunny.7 mph93%29.98 "Hg5 mi
5:50 AM37 °FDrizzle. Broken clouds.2 mph93%29.98 "HgN/A
4:50 AM37 °FPartly cloudy.3 mph93%29.98 "HgN/A
2:50 AM39 °FPassing clouds.9 mph81%30.01 "HgN/A
12:50 AM39 °FPassing clouds.5 mph81%30.01 "HgN/A
11:50 PM
Fri, Apr 17
39 °FPassing clouds.6 mph81%30.01 "HgN/A
10:50 PM39 °FScattered showers. Partly cloudy.6 mph81%29.98 "HgN/A
9:50 PM39 °FMostly cloudy.8 mph87%29.98 "HgN/A
8:50 PM39 °FDrizzle. More clouds than sun.9 mph93%29.98 "HgN/A
7:50 PM39 °FBroken clouds.8 mph93%29.98 "HgN/A
6:50 PM39 °FLight rain. Mostly cloudy.20 mph93%29.95 "HgN/A
5:50 PM39 °FLight rain. Broken clouds.16 mph87%29.95 "HgN/A
4:50 PM39 °FPartly sunny.20 mph87%29.95 "HgN/A
2:50 PM39 °FLight rain. Broken clouds.14 mph87%29.95 "HgN/A
1:50 PM39 °FScattered showers. Broken clouds.18 mph81%29.95 "HgN/A
12:50 PM39 °FScattered showers. Broken clouds.17 mph81%29.95 "HgN/A
11:50 AM39 °FMore clouds than sun.15 mph87%29.95 "HgN/A
Weather by CustomWeather, © 2015

See weather overviewHow to use our weather pages